Tracking 20093 objects as of 14-Dec-2019
HD Live streaming from Space Station
objects crossing your sky now

COSMOS 2251 DEB

Track COSMOS 2251 DEB now!
10-day predictions


NORAD ID: 35987
Int'l Code: 1993-036AWD
Perigee: 749.5 km
Apogee: 838.0 km
Inclination: 74.0 °
Period: 100.6 minutes
Semi major axis: 7164 km
RCS: 0.0082 m2 (small)
Launch date: June 16, 1993
Source: Commonwealth of Independent States (former USSR) (CIS)
Launch site: PLESETSK MISSILE AND SPACE COMPLEX (PKMTR)

Note: This is SATELLITE DEBRIS
aabbcc
Your satellite tracking list
Your tracking list is empty




NASA's NSSDC Master Catalog

Two Line Element Set (TLE):
1 35987U 93036AWD 19347.38563664  .00000332  00000-0  13223-3 0  9990
2 35987  74.0046  31.3784 0061812 308.0593  51.4989 14.31529730556082
Source of the keplerian elements: AFSPC